N0JVW-13 Weather Reports


time (UTC)temp
C
wind
direction
speed
KPH
gust
KPH
rain 1hr
cm
rain 24hr
cm
rain mn
cm
humidity
%
barometer
mb
20260510084026 15 7 3.2 11.3 0.00 0.00 0.00 56 1015.4
20260510083602 15 20 3.2 17.7 0.00 0.00 0.00 57 1015.4
20260510083039 15 332 4.8 17.7 0.00 0.00 0.00 57 1015.2
20260510082514 15 24 4.8 9.7 0.00 0.00 0.00 61 1015.1
20260510082055 15 354 4.8 9.7 0.00 0.00 0.00 63 1015.0
20260510081544 15 9 3.2 9.7 0.00 0.00 0.00 65 1014.9
20260510081009 15 25 3.2 6.4 0.00 0.00 0.00 67 1014.9
20260510080548 16 18 1.6 6.4 0.00 0.00 0.00 69 1015.0
20260510080028 16 11 0.0 4.8 0.00 0.00 0.00 69 1014.9
20260510075605 16 5 0.0 4.8 0.00 0.00 0.00 68 1014.9
20260510075041 16 359 0.0 6.4 0.00 0.00 0.00 67 1014.5
20260510074515 16 29 1.6 6.4 0.00 0.00 0.00 66 1014.4
20260510074058 16 359 1.6 6.4 0.00 0.00 0.00 66 1014.3
20260510073533 16 23 0.0 4.8 0.00 0.00 0.00 67 1014.4
20260510073009 16 13 0.0 3.2 0.00 0.00 0.00 66 1014.4
20260510072549 16 30 0.0 1.6 0.00 0.00 0.00 66 1014.3
20260510072027 16 30 0.0 3.2 0.00 0.00 0.00 65 1014.1
20260510071501 16 1 0.0 3.2 0.00 0.00 0.00 65 1014.0
20260510071040 16 356 0.0 1.6 0.00 0.00 0.00 64 1013.9
20260510070516 16 356 0.0 1.6 0.00 0.00 0.00 64 1013.9
20260510070058 17 356 0.0 1.6 0.00 0.00 0.00 63 1013.9
20260510065534 17 356 0.0 1.6 0.00 0.00 0.00 62 1013.6
20260510065014 17 356 0.0 1.6 0.00 0.00 0.00 61 1013.7
20260510064553 17 356 0.0 1.6 0.00 0.00 0.00 61 1013.7
20260510064026 17 356 0.0 1.6 0.00 0.00 0.00 61 1013.5
20260510063503 17 356 0.0 0.0 0.00 0.00 0.00 61 1013.4
20260510063048 17 356 0.0 1.6 0.00 0.00 0.00 60 1013.5
20260510062519 17 356 0.0 1.6 0.00 0.00 0.00 60 1013.7
20260510062100 17 356 0.0 0.0 0.00 0.00 0.00 60 1013.8
20260510061536 17 356 0.0 0.0 0.00 0.00 0.00 59 1013.9
20260510061012 17 356 0.0 1.6 0.00 0.00 0.00 59 1013.9
20260510060554 17 356 0.0 3.2 0.00 0.00 0.00 58 1013.8
20260510060030 17 356 0.0 3.2 0.00 0.00 0.00 57 1013.6
20260510055506 17 352 0.0 3.2 0.00 0.00 0.00 57 1013.5
20260510055050 17 352 0.0 3.2 0.00 0.00 0.00 57 1013.4
20260510054523 18 352 0.0 3.2 0.00 0.00 0.00 57 1013.2
20260510054102 18 352 0.0 3.2 0.00 0.00 0.00 57 1013.2
20260510053540 18 342 0.0 1.6 0.00 0.00 0.00 57 1013.4
20260510053014 18 342 0.0 1.6 0.00 0.00 0.00 56 1013.5
20260510052555 18 341 0.0 4.8 0.00 0.00 0.00 56 1013.5
20260510052031 18 325 0.0 4.8 0.00 0.00 0.00 53 1013.1
20260510051507 18 343 1.6 6.4 0.00 0.00 0.00 51 1013.0
20260510051151 18 328 0.0 8.0 0.00 0.00 0.00 51 1012.8
20260510050529 18 357 1.6 9.7 0.00 0.00 0.00 50 1012.5
20260510050111 19 340 1.6 9.7 0.00 0.00 0.00 51 1012.5
20260510045541 19 337 1.6 9.7 0.00 0.00 0.00 50 1012.1
20260510045018 19 319 1.6 9.7 0.00 0.00 0.00 50 1012.0
20260510044600 19 347 3.2 9.7 0.00 0.00 0.00 50 1011.9
20260510044031 19 357 0.0 8.0 0.00 0.00 0.00 50 1011.6
20260510043509 19 340 1.6 11.3 0.00 0.00 0.00 49 1011.5
20260510043103 19 10 1.6 11.3 0.00 0.00 0.00 49 1011.5
20260510042528 19 14 6.4 11.3 0.00 0.00 0.00 49 1011.6
20260510042002 19 340 4.8 9.7 0.00 0.00 0.00 50 1011.7
20260510041544 19 328 3.2 9.7 0.00 0.00 0.00 52 1011.7
20260510041021 19 333 1.6 6.4 0.00 0.00 0.00 56 1011.5
20260510040603 19 4 1.6 9.7 0.00 0.00 0.00 57 1011.6
20260510040036 19 334 3.2 11.3 0.00 0.00 0.00 59 1011.6
20260510035513 19 30 6.4 11.3 0.00 0.00 0.00 59 1011.5
20260510035055 19 8 3.2 8.0 0.00 0.00 0.00 62 1011.5
20260510034538 19 335 0.0 1.6 0.00 0.00 0.00 63 1011.5
20260510034007 20 25 0.0 0.0 0.00 0.00 0.00 59 1011.8
20260510033550 20 25 0.0 0.0 0.00 0.00 0.00 58 1012.0
20260510033022 20 25 0.0 0.0 0.00 0.00 0.00 56 1011.8
20260510032604 20 25 0.0 0.0 0.00 0.00 0.00 56 1011.6
20260510032040 19 25 0.0 0.0 0.00 0.00 0.00 56 1011.2
20260510031516 19 25 0.0 0.0 0.00 0.00 0.00 56 1011.1
20260510031058 19 25 0.0 0.0 0.00 0.00 0.00 55 1010.8
20260510030534 20 25 0.0 0.0 0.00 0.00 0.00 54 1010.8
20260510030008 20 25 0.0 0.0 0.00 0.00 0.00 54 1010.8
20260510025549 20 25 0.0 0.0 0.00 0.00 0.00 54 1010.6
20260510025025 20 25 0.0 0.0 0.00 0.00 0.00 53 1010.4
20260510024502 20 25 0.0 0.0 0.00 0.00 0.00 53 1010.4
20260510024042 20 25 0.0 0.0 0.00 0.00 0.00 53 1010.3
20260510023517 20 25 0.0 0.0 0.00 0.00 0.00 52 1010.1
20260510023058 20 25 0.0 0.0 0.00 0.00 0.00 51 1009.9
20260510022535 21 25 0.0 0.0 0.00 0.00 0.00 51 1009.8
20260510022011 21 25 0.0 0.0 0.00 0.00 0.00 51 1009.8
20260510021551 21 25 0.0 3.2 0.00 0.00 0.00 50 1009.7
20260510021027 21 25 0.0 3.2 0.00 0.00 0.00 49 1009.6
20260510020506 21 5 0.0 3.2 0.00 0.00 0.00 49 1009.6
20260510020048 21 352 1.6 4.8 0.00 0.00 0.00 49 1009.4
20260510015520 21 32 0.0 4.8 0.00 0.00 0.00 48 1009.5
20260510015101 21 6 0.0 4.8 0.00 0.00 0.00 49 1009.4
20260510014542 21 16 0.0 4.8 0.00 0.00 0.00 48 1009.3
20260510014015 22 358 0.0 6.4 0.00 0.00 0.00 48 1009.2
20260510013556 22 26 1.6 6.4 0.00 0.00 0.00 47 1009.1
20260510013031 22 44 1.6 6.4 0.00 0.00 0.00 47 1009.0
20260510012507 22 342 1.6 6.4 0.00 0.00 0.00 48 1009.0
20260510012050 22 15 0.0 3.2 0.00 0.00 0.00 48 1008.9
20260510011536 22 349 0.0 4.8 0.00 0.00 0.00 47 1008.9
20260510011105 22 20 0.0 4.8 0.00 0.00 0.00 47 1008.8
20260510010540 22 10 0.0 3.2 0.00 0.00 0.00 46 1008.8
20260510010018 22 10 0.0 3.2 0.00 0.00 0.00 46 1008.7
20260510005559 22 9 0.0 9.7 0.00 0.00 0.00 45 1008.6
20260510005036 23 9 3.2 9.7 0.00 0.00 0.00 44 1008.4
20260510004513 23 20 0.0 9.7 0.00 0.00 0.00 45 1008.4
20260510004053 23 41 0.0 9.7 0.00 0.00 0.00 44 1008.3
20260510003531 23 298 1.6 9.7 0.00 0.00 0.00 43 1008.3
20260510003008 23 343 0.0 6.4 0.00 0.00 0.00 43 1008.1
20260510002548 23 37 0.0 6.4 0.00 0.00 0.00 43 1007.9
20260510002024 23 15 1.6 6.4 0.00 0.00 0.00 43 1007.9
20260510001501 23 352 0.0 11.3 0.00 0.00 0.00 42 1007.8
20260510001042 24 9 4.8 11.3 0.00 0.00 0.00 41 1007.6
20260510000519 24 18 1.6 11.3 0.00 0.00 0.00 40 1007.6
20260510000107 24 7 1.6 11.3 0.00 0.00 0.00 40 1007.6
20260509235538 24 27 1.6 6.4 0.00 0.00 0.00 40 1007.6
20260509235015 24 330 0.0 9.7 0.00 0.00 0.00 40 1007.5
20260509234559 25 19 0.0 9.7 0.00 0.00 0.00 40 1007.6
20260509234027 25 320 0.0 17.7 0.00 0.00 0.00 39 1007.5
20260509233505 25 283 0.0 17.7 0.00 0.00 0.00 38 1007.5
20260509233047 25 62 1.6 11.3 0.00 0.00 0.00 36 1007.4
20260509232521 26 340 0.0 3.2 0.00 0.00 0.00 35 1007.2
20260509232101 26 285 0.0 1.6 0.00 0.00 0.00 33 1007.0
20260509231548 26 285 0.0 1.6 0.00 0.00 0.00 34 1006.9
20260509231022 26 285 0.0 1.6 0.00 0.00 0.00 33 1006.9
20260509230606 26 285 0.0 1.6 0.00 0.00 0.00 33 1006.8
20260509230039 26 285 0.0 3.2 0.00 0.00 0.00 35 1006.8
20260509225516 27 285 0.0 3.2 0.00 0.00 0.00 34 1006.8
20260509225056 27 268 0.0 1.6 0.00 0.00 0.00 34 1006.7
20260509224532 27 267 0.0 1.6 0.00 0.00 0.00 34 1006.7
20260509224008 27 268 0.0 3.2 0.00 0.00 0.00 34 1006.6
20260509223549 27 267 0.0 3.2 0.00 0.00 0.00 33 1006.6
20260509223026 27 281 1.6 3.2 0.00 0.00 0.00 33 1006.6
20260509222501 27 276 0.0 3.2 0.00 0.00 0.00 34 1006.6
20260509222045 27 276 0.0 3.2 0.00 0.00 0.00 33 1006.6
20260509221520 27 311 0.0 3.2 0.00 0.00 0.00 32 1006.6
20260509221100 27 285 0.0 4.8 0.00 0.00 0.00 32 1006.5
20260509220535 27 291 0.0 4.8 0.00 0.00 0.00 31 1006.5
20260509220011 28 279 1.6 3.2 0.00 0.00 0.00 31 1006.5
20260509215553 28 265 0.0 4.8 0.00 0.00 0.00 33 1006.5
20260509215032 28 264 0.0 4.8 0.00 0.00 0.00 32 1006.5
20260509214506 27 275 0.0 4.8 0.00 0.00 0.00 33 1006.5
20260509214046 27 300 0.0 1.6 0.00 0.00 0.00 35 1006.5
20260509213523 27 281 0.0 3.2 0.00 0.00 0.00 36 1006.6
20260509213103 27 285 0.0 6.4 0.00 0.00 0.00 35 1006.5
20260509212539 27 264 0.0 6.4 0.00 0.00 0.00 35 1006.6
20260509212017 27 200 0.0 1.6 0.00 0.00 0.00 38 1006.5
20260509211556 27 291 0.0 4.8 0.00 0.00 0.00 33 1006.5
20260509211033 28 313 0.0 4.8 0.00 0.00 0.00 33 1006.5
20260509210510 27 277 0.0 4.8 0.00 0.00 0.00 35 1006.6
20260509210057 27 277 0.0 4.8 0.00 0.00 0.00 34 1006.6
20260509205523 27 273 0.0 4.8 0.00 0.00 0.00 35 1006.7
20260509205104 27 273 0.0 4.8 0.00 0.00 0.00 36 1006.7
20260509204549 27 278 0.0 3.2 0.00 0.00 0.00 35 1006.8
20260509204023 27 280 0.0 4.8 0.00 0.00 0.00 37 1006.9
20260509203558 27 280 0.0 4.8 0.00 0.00 0.00 35 1007.0
20260509203033 27 275 0.0 4.8 0.00 0.00 0.00 38 1007.0
20260509202510 27 316 1.6 4.8 0.00 0.00 0.00 39 1007.1
20260509202051 27 311 0.0 3.2 0.00 0.00 0.00 39 1007.1
20260509201530 27 298 0.0 3.2 0.00 0.00 0.00 38 1007.2
20260509201004 27 311 0.0 4.8 0.00 0.00 0.00 38 1007.2
20260509200545 27 285 0.0 4.8 0.00 0.00 0.00 39 1007.2
20260509200022 27 282 0.0 6.4 0.00 0.00 0.00 38 1007.3
20260509195604 27 267 1.6 6.4 0.00 0.00 0.00 36 1007.3
20260509195039 27 317 0.0 4.8 0.00 0.00 0.00 37 1007.4
20260509194518 27 298 0.0 4.8 0.00 0.00 0.00 38 1007.5
20260509194056 27 327 1.6 4.8 0.00 0.00 0.00 37 1007.6
20260509193533 27 277 0.0 3.2 0.00 0.00 0.00 38 1007.5
20260509193008 27 316 0.0 3.2 0.00 0.00 0.00 40 1007.6
20260509192551 27 316 0.0 4.8 0.00 0.00 0.00 41 1007.6
20260509192026 27 316 1.6 4.8 0.00 0.00 0.00 39 1007.6
20260509191605 27 203 0.0 3.2 0.00 0.00 0.00 40 1007.6
20260509191039 26 203 0.0 3.2 0.00 0.00 0.00 40 1007.7
20260509190516 26 289 0.0 6.4 0.00 0.00 0.00 41 1007.7
20260509190056 26 257 0.0 6.4 0.00 0.00 0.00 40 1007.8
20260509185531 26 105 0.0 6.4 0.00 0.00 0.00 41 1007.9
20260509185011 26 79 1.6 4.8 0.00 0.00 0.00 42 1007.9
20260509184558 26 294 0.0 4.8 0.00 0.00 0.00 41 1007.9
20260509184023 26 329 0.0 3.2 0.00 0.00 0.00 40 1008.0
20260509183604 26 274 0.0 3.2 0.00 0.00 0.00 38 1008.0
20260509183039 26 274 0.0 3.2 0.00 0.00 0.00 40 1008.0
20260509182515 26 279 0.0 3.2 0.00 0.00 0.00 40 1008.1
20260509182056 26 280 0.0 4.8 0.00 0.00 0.00 41 1008.1
20260509181532 26 280 0.0 4.8 0.00 0.00 0.00 40 1008.2
20260509181010 26 251 0.0 4.8 0.00 0.00 0.00 40 1008.2
20260509180550 26 275 0.0 4.8 0.00 0.00 0.00 43 1008.3
20260509180026 26 326 0.0 1.6 0.00 0.00 0.00 45 1008.4
20260509175502 25 326 0.0 3.2 0.00 0.00 0.00 43 1008.4
20260509175042 25 326 0.0 4.8 0.00 0.00 0.00 42 1008.5
20260509174518 25 291 0.0 4.8 0.00 0.00 0.00 43 1008.5
20260509174100 25 186 0.0 3.2 0.00 0.00 0.00 42 1008.4
20260509173535 25 186 0.0 1.6 0.00 0.00 0.00 45 1008.6
20260509173011 25 186 0.0 3.2 0.00 0.00 0.00 47 1008.7
20260509172551 25 186 0.0 3.2 0.00 0.00 0.00 45 1008.7
20260509172028 25 184 0.0 1.6 0.00 0.00 0.00 48 1008.8
20260509171502 24 295 0.0 4.8 0.00 0.00 0.00 45 1008.9
20260509171044 24 296 0.0 4.8 0.00 0.00 0.00 44 1008.9
20260509170519 24 274 0.0 4.8 0.00 0.00 0.00 44 1008.9
20260509170100 24 274 0.0 4.8 0.00 0.00 0.00 46 1009.0
20260509165536 23 269 0.0 3.2 0.00 0.00 0.00 45 1009.0
20260509165011 23 277 0.0 3.2 0.00 0.00 0.00 43 1009.0
20260509164553 23 284 0.0 1.6 0.00 0.00 0.00 46 1009.0
20260509164028 23 284 0.0 1.6 0.00 0.00 0.00 48 1009.1
20260509163503 23 252 0.0 3.2 0.00 0.00 0.00 49 1009.0
20260509163044 23 296 0.0 4.8 0.00 0.00 0.00 49 1009.0
20260509162521 23 296 0.0 4.8 0.00 0.00 0.00 49 1009.0
20260509162102 22 290 0.0 3.2 0.00 0.00 0.00 50 1008.9
20260509161538 22 290 0.0 3.2 0.00 0.00 0.00 49 1008.9
20260509161013 22 275 0.0 3.2 0.00 0.00 0.00 51 1008.9
20260509160557 22 278 0.0 1.6 0.00 0.00 0.00 51 1008.9
20260509160035 22 278 0.0 3.2 0.00 0.00 0.00 52 1008.9
20260509155507 22 278 0.0 4.8 0.00 0.00 0.00 52 1008.9
20260509155048 22 274 1.6 4.8 0.00 0.00 0.00 51 1008.9
20260509154523 21 302 0.0 4.8 0.00 0.00 0.00 53 1008.8
20260509154104 21 310 1.6 4.8 0.00 0.00 0.00 52 1008.8
20260509153540 21 282 0.0 3.2 0.00 0.00 0.00 54 1008.8
20260509153030 21 272 0.0 3.2 0.00 0.00 0.00 55 1008.7
20260509152557 21 282 0.0 3.2 0.00 0.00 0.00 56 1008.8
20260509152037 21 273 1.6 3.2 0.00 0.00 0.00 56 1008.8
20260509151507 20 282 1.6 4.8 0.00 0.00 0.00 57 1008.8
20260509151048 20 276 0.0 4.8 0.00 0.00 0.00 58 1008.7
20260509150524 20 280 0.0 3.2 0.00 0.00 0.00 58 1008.7
20260509150008 20 276 0.0 4.8 0.00 0.00 0.00 60 1008.7
20260509145550 20 276 1.6 4.8 0.00 0.00 0.00 59 1008.7
20260509145024 20 279 1.6 4.8 0.00 0.00 0.00 60 1008.8
20260509144612 19 274 0.0 4.8 0.00 0.00 0.00 62 1008.8
20260509144039 19 293 3.2 4.8 0.00 0.00 0.00 63 1008.8
20260509143515 18 307 0.0 4.8 0.00 0.00 0.00 66 1008.9
20260509143119 18 306 0.0 4.8 0.00 0.00 0.00 67 1008.8
20260509142533 18 283 0.0 4.8 0.00 0.00 0.00 68 1008.7
20260509142012 18 305 0.0 4.8 0.00 0.00 0.00 69 1008.8
20260509141549 18 297 0.0 4.8 0.00 0.00 0.00 69 1008.8
20260509141024 17 257 1.6 4.8 0.00 0.00 0.00 70 1008.8
20260509140604 17 278 0.0 4.8 0.00 0.00 0.00 72 1008.8
20260509140041 17 279 0.0 6.4 0.00 0.00 0.00 74 1008.8
20260509135517 17 281 0.0 6.4 0.00 0.00 0.00 75 1008.9
20260509135102 16 264 0.0 3.2 0.00 0.00 0.00 76 1008.9
20260509134557 16 302 0.0 6.4 0.00 0.00 0.00 76 1008.9
20260509134010 16 316 1.6 6.4 0.00 0.00 0.00 76 1008.9
20260509133553 16 327 0.0 6.4 0.00 0.00 0.00 76 1008.9
20260509133029 15 282 0.0 3.2 0.00 0.00 0.00 75 1009.0
20260509132502 15 283 0.0 3.2 0.00 0.00 0.00 74 1009.0
20260509132046 15 313 0.0 3.2 0.00 0.00 0.00 72 1009.0
20260509131518 15 268 0.0 3.2 0.00 0.00 0.00 71 1009.0
20260509131057 15 253 0.0 3.2 0.00 0.00 0.00 66 1009.0
20260509130537 15 300 0.0 3.2 0.00 0.00 0.00 64 1008.9
20260509130010 14 310 0.0 1.6 0.00 0.00 0.00 54 1008.7
20260509125549 14 273 0.0 0.0 0.00 0.00 0.00 46 1008.6
20260509125030 13 273 0.0 0.0 0.00 0.00 0.00 33 1008.6
20260509124504 13 273 0.0 0.0 0.00 0.00 0.00 23 1008.6
20260509124046 13 273 0.0 0.0 0.00 0.00 0.00 15 1008.6
20260509123520 13 273 0.0 1.6 0.00 0.00 0.00 1 1008.6
20260509123131 12 273 0.0 1.6 0.00 0.00 0.00 1 1008.6
20260509122537 12 155 0.0 0.0 0.00 0.00 0.00 1 1008.5
20260509122016 12 155 0.0 0.0 0.00 0.00 0.00 1 1008.4
20260509121612 12 155 0.0 0.0 0.00 0.00 0.00 1 1008.4
20260509121031 12 155 0.0 0.0 0.00 0.00 0.00 1 1008.2
20260509120507 12 155 0.0 0.0 0.00 0.00 0.00 1 1008.2
20260509120048 11 155 0.0 0.0 0.00 0.00 0.00 1 1008.2
20260509115522 11 155 0.0 0.0 0.00 0.00 0.00 1 1008.1
20260509115100 11 155 0.0 0.0 0.00 0.00 0.00 1 1008.1
20260509114539 11 155 0.0 0.0 0.00 0.00 0.00 1 1008.1
20260509114016 11 155 0.0 0.0 0.00 0.00 0.00 1 1008.0
20260509113556 11 155 0.0 0.0 0.00 0.00 0.00 1 1007.9
20260509113036 11 155 0.0 0.0 0.00 0.00 0.00 1 1007.8
20260509112505 11 155 0.0 0.0 0.00 0.00 0.00 1 1007.6
20260509112046 11 155 0.0 0.0 0.00 0.00 0.00 1 1007.6
20260509111522 11 155 0.0 0.0 0.00 0.00 0.00 1 1007.6
20260509111104 11 155 0.0 0.0 0.00 0.00 0.00 1 1007.6
20260509110537 11 155 0.0 3.2 0.00 0.00 0.00 1 1007.6
20260509110013 11 155 0.0 3.2 0.00 0.00 0.00 1 1007.6
20260509105554 11 154 0.0 0.0 0.00 0.00 0.00 1 1007.5
20260509105028 11 154 0.0 0.0 0.00 0.00 0.00 1 1007.6
20260509104503 11 154 0.0 0.0 0.00 0.00 0.00 1 1007.6
20260509104043 11 154 0.0 0.0 0.00 0.00 0.00 1 1007.7
20260509103518 11 154 0.0 0.0 0.00 0.00 0.00 1 1007.7
20260509103106 11 154 0.0 0.0 0.00 0.00 0.00 1 1007.7
20260509102535 12 154 0.0 0.0 0.00 0.00 0.00 1 1007.6
20260509102013 12 154 0.0 0.0 0.00 0.00 0.00 1 1007.6
20260509101618 12 154 0.0 0.0 0.00 0.00 0.00 1 1007.6
20260509101031 12 154 0.0 0.0 0.00 0.00 0.00 1 1007.7
20260509100502 12 154 0.0 0.0 0.00 0.00 0.00 1 1007.8
20260509100044 12 154 0.0 0.0 0.00 0.00 0.00 1 1007.9
20260509095521 12 154 0.0 0.0 0.00 0.00 0.00 1 1007.8
20260509095103 12 154 0.0 0.0 0.00 0.00 0.00 1 1007.8
20260509094540 12 154 0.0 0.0 0.00 0.00 0.00 1 1007.9
20260509094013 12 154 0.0 0.0 0.00 0.00 0.00 1 1007.9
20260509093555 12 154 0.0 0.0 0.00 0.00 0.00 1 1007.8
20260509093030 12 154 0.0 0.0 0.00 0.00 0.00 1 1007.9
20260509092506 12 154 0.0 0.0 0.00 0.00 0.00 1 1007.9
20260509092047 12 154 0.0 0.0 0.00 0.00 0.00 1 1007.8
20260509091536 12 154 0.0 0.0 0.00 0.00 0.00 1 1007.7
20260509091001 12 154 0.0 0.0 0.00 0.00 0.00 1 1007.8
20260509090543 12 154 0.0 0.0 0.00 0.00 0.00 1 1007.7
20260509090017 12 154 0.0 0.0 0.00 0.00 0.00 1 1007.6
20260509085557 12 154 0.0 0.0 0.00 0.00 0.00 1 1007.6
20260509085034 12 154 0.0 0.0 0.00 0.00 0.00 1 1007.5
20260509084510 12 154 0.0 0.0 0.00 0.00 0.00 1 1007.7